sat.trackr.live / text

‹ back to catalog

STARLINK-31031

NORAD 58711 · 2024-002G

PAYLOAD ACTIVE UNKNOWN

§ Identity

Operator
Country
US
Launch date
2024-01-03
Launch site
AFWTR
Launch vehicle
Mass (kg)
RCS (m²)

Purposes: comms

External: N2YO · Heavens-Above · Gunter

§ Orbital elements

Epoch: 2026-09-20T02:36:36.987552Z

Period
93.85 min
Inclination
53.1611°
Eccentricity
0.0001093
Mean motion
15.34374221 rev/d
Perigee alt
462.0 km
Apogee alt
463.5 km
Semi-major
6,840.9 km
B*
-8.8218e-5
RAAN
43.2088°
Arg perigee
91.8844°
Mean anomaly
268.2283°
Rev number
15,183

§ Raw data

STARLINK-310311 58711U 24002G   26263.10876143 -.00003353  00000+0 -88218-4 0  99952 58711  53.1611  43.2088 0001093  91.8844 268.2283 15.34374221151834

JSON: /api/v1/satellites/58711 · /tle

For live sub-satellite position, see the globe view (requires WebGL).

§ Visibility from observer

Set your observer location to see the next 7 days of passes ≥ 10°. The values pass through the URL so the page stays shareable.

No JS? Fill the form by hand. The geolocation button needs JavaScript.